Sant Julià de Vilatorta





Hora UTC 07:10
Temperatura -1.3 ºC
Humedad 98.9 %
Presión 1023.5 hPa
Pluja 0.0 mm
Velocidad viento 1.2 km/h
Dirección viento NNE
Radiación solar 17.4 W/m²

Datos diarios 2020-02-20



Hora UTC (invierno +1h; verano +2h)
Temperatura (ºC) Humedad (%) Presión (hPa) Velocidad viento (km/h) Precipitación (mm) Radiación solar (W/m²)
Hora UTC Aire Humedad Presión Vel. Dir. Vel. Max Dir. Intent. máx 5 min. Rad. Sol.
00:05 0.8 93.7 1025.5 2.0 NNE 4.0 SE 0.0 0.0
00:10 0.7 93.7 1025.5 2.4 NNE 3.2 E 0.0 0.0
00:15 0.8 94.0 1025.4 2.0 N 4.0 SE 0.0 0.0
00:20 0.8 94.2 1025.3 2.0 NNE 3.9 SE 0.0 0.0
00:25 0.8 94.4 1025.2 2.0 N 2.9 SE 0.0 0.0
00:30 0.8 94.6 1025.2 1.9 NNE 2.7 SE 0.0 0.0
00:35 0.7 94.6 1025.2 2.5 N 3.6 SE 0.0 0.0
00:40 0.6 94.6 1025.2 1.6 N 2.5 SSE 0.0 0.0
00:45 0.5 94.4 1025.2 1.3 NNE 2.0 ESE 0.0 0.0
00:50 0.3 94.3 1025.2 1.3 NNE 1.8 E 0.0 0.0
00:55 0.4 94.9 1025.2 1.7 NNE 3.2 ESE 0.0 0.0
01:00 0.4 95.2 1025.2 2.1 N 3.0 ESE 0.0 0.0
01:05 0.3 95.0 1025.2 2.5 N 3.4 SE 0.0 0.0
01:10 0.2 95.0 1025.1 3.1 N 4.8 SSE 0.0 0.0
01:15 0.3 95.4 1025.0 3.9 N 5.5 SE 0.0 0.0
01:20 0.6 95.9 1024.9 4.4 N 7.7 SSE 0.0 0.0
01:25 0.7 95.7 1024.8 3.7 N 6.4 SE 0.0 0.0
01:30 0.5 95.3 1024.8 2.5 NNE 3.9 SE 0.0 0.0
01:35 0.4 95.1 1024.7 2.1 N 2.8 E 0.0 0.0
01:40 0.3 95.3 1024.7 2.3 N 3.3 E 0.0 0.0
01:45 0.3 95.6 1024.6 2.2 N 3.6 ESE 0.0 0.0
01:50 0.2 95.7 1024.6 2.1 NNE 3.4 ESE 0.0 0.0
01:55 0.1 95.6 1024.5 2.4 N 3.6 SE 0.0 0.0
02:00 0.0 95.5 1024.5 2.2 NNE 3.5 SE 0.0 0.0
02:05 -0.1 95.5 1024.5 2.3 NNE 4.3 SE 0.0 0.0
02:10 -0.2 95.7 1024.5 1.8 N 3.1 E 0.0 0.0
02:15 -0.1 96.1 1024.4 1.7 NNE 3.0 E 0.0 0.0
02:20 -0.1 96.2 1024.4 2.1 NNE 3.2 E 0.0 0.0
02:25 -0.2 96.1 1024.3 2.0 N 3.0 SE 0.0 0.0
02:30 -0.3 96.2 1024.2 2.1 N 2.7 ESE 0.0 0.0
02:35 -0.3 96.4 1024.2 1.9 N 3.1 SE 0.0 0.0
02:40 -0.4 96.3 1024.2 2.3 N 3.2 SE 0.0 0.0
02:45 -0.4 96.4 1024.2 1.7 N 2.7 SE 0.0 0.0
02:50 -0.5 96.3 1024.1 3.5 N 4.7 SE 0.0 0.0
02:55 -0.5 96.3 1024.1 2.8 N 4.1 SE 0.0 0.0
03:00 -0.5 96.4 1024.0 2.3 N 3.3 SE 0.0 0.0
03:05 -0.6 96.3 1024.0 2.5 N 3.2 SE 0.0 0.0
03:10 -0.6 96.2 1023.9 2.5 N 3.3 SE 0.0 0.0
03:15 -0.7 96.2 1023.8 2.6 N 3.9 SSE 0.0 0.0
03:20 -0.8 96.1 1023.8 1.8 N 2.4 SE 0.0 0.0
03:25 -0.8 96.3 1023.7 1.7 N 2.7 ESE 0.0 0.0
03:30 -0.8 96.4 1023.7 1.9 N 2.6 E 0.0 0.0
03:35 -0.8 96.7 1023.7 2.6 N 3.5 E 0.0 0.0
03:40 -0.7 97.0 1023.7 2.7 NNE 3.7 E 0.0 0.0
03:45 -0.7 97.1 1023.7 2.5 N 3.6 SE 0.0 0.0
03:50 -0.8 97.1 1023.7 2.3 N 4.9 SE 0.0 0.0
03:55 -0.7 97.3 1023.6 2.6 N 3.8 SE 0.0 0.0
04:00 -0.8 97.2 1023.6 2.3 N 3.3 SE 0.0 0.0
04:05 -0.9 97.1 1023.6 1.9 N 2.8 SE 0.0 0.6
04:10 -1.0 97.1 1023.6 2.3 N 3.7 SE 0.0 0.9
04:15 -1.0 97.2 1023.6 1.7 N 3.1 SE 0.0 0.0
04:20 -1.0 97.3 1023.5 2.0 N 3.3 SE 0.0 0.0
04:25 -1.1 97.3 1023.5 2.3 NNE 3.4 ESE 0.0 0.0
04:30 -1.1 97.3 1023.5 2.1 N 3.1 ESE 0.0 0.0
04:35 -1.1 97.5 1023.5 2.1 N 3.2 SE 0.0 0.0
04:40 -1.0 97.8 1023.6 2.0 N 2.7 ESE 0.0 0.0
04:45 -0.9 97.9 1023.6 2.2 NNE 3.1 SE 0.0 0.0
04:50 -0.9 97.9 1023.6 2.1 NNE 3.8 SSE 0.0 0.0
04:55 -1.0 97.8 1023.5 2.1 N 3.6 E 0.0 0.0
05:00 -1.1 97.9 1023.5 3.3 N 4.7 E 0.0 0.0
05:05 -1.1 98.1 1023.5 1.9 N 2.7 ESE 0.0 0.0
05:10 -1.1 98.0 1023.5 1.8 N 2.9 SE 0.0 0.0
05:15 -1.2 98.0 1023.5 2.1 NNE 3.6 ESE 0.0 0.0
05:20 -1.2 98.1 1023.5 2.9 N 4.1 ESE 0.0 0.0
05:25 -1.2 98.2 1023.5 2.3 NNE 3.4 ESE 0.0 0.0
05:30 -1.1 98.3 1023.5 3.4 N 5.0 SE 0.0 0.0
05:35 -1.1 98.4 1023.5 2.7 N 4.4 SE 0.0 0.0
05:40 -1.2 98.3 1023.4 2.4 N 3.5 SE 0.0 0.0
05:45 -1.4 98.1 1023.4 2.9 N 3.8 SSE 0.0 0.0
05:50 -1.3 98.3 1023.5 2.5 NNE 3.7 ESE 0.0 0.0
05:55 -1.3 98.4 1023.5 2.2 N 3.8 ESE 0.0 0.0
06:00 -1.4 98.3 1023.5 1.9 NNE 4.0 SE 0.0 0.0
06:05 -1.4 98.4 1023.5 2.0 NNE 3.4 SE 0.0 0.0
06:10 -1.5 98.4 1023.4 2.0 NNE 3.6 ESE 0.0 0.0
06:15 -1.4 98.5 1023.4 2.8 NNE 4.4 SE 0.0 0.0
06:20 -1.3 98.6 1023.4 2.5 NNE 4.5 SE 0.0 0.0
06:25 -1.3 98.6 1023.4 2.0 NNE 3.5 E 0.0 0.0
06:30 -1.3 98.6 1023.4 1.4 NNE 2.6 SSE 0.0 0.0
06:35 -1.4 98.5 1023.4 2.1 N 2.8 E 0.0 0.6
06:40 -1.5 98.5 1023.4 2.7 N 3.7 E 0.0 1.7
06:45 -1.5 98.7 1023.4 1.7 NNE 2.4 SSE 0.0 3.6
06:50 -1.4 98.8 1023.4 1.5 NNE 2.7 ESE 0.0 6.3
06:55 -1.3 98.9 1023.4 2.3 N 3.1 E 0.0 8.7
07:00 -1.4 98.8 1023.4 1.5 NNE 2.4 ESE 0.0 11.5
07:05 -1.3 98.9 1023.4 1.6 NNE 2.7 SSE 0.0 14.4
07:10 -1.3 98.9 1023.5 1.2 NNE 1.9 ESE 0.0 17.4
Máxima 1.0 98.9 1025.5 4.4 N 7.7 SSE 0.0 17.4
Mínima -1.6 93.7 1023.4
Total 0.0